When you browse on this site, cookies collect data to enhance your experience and personalize the content and advertising you see.
Visit our Privacy Policy to learn more. By continuing to use the site, you agree to this use of cookies and data.
EN

Hourly Weather Nalasa

Today, 7 August, Friday

Time Temperature Precipitation Wind Pressure Humidity
00:00 +21°C° 0.4 mm 1 mps 751 mmHg 87%
01:00 +20°C° 0.8 mm 2 mps 751 mmHg 89%
02:00 +20°C° 0.8 mm 2 mps 751 mmHg 91%
03:00 +20°C° 0 mm 2 mps 751 mmHg 93%
04:00 +20°C° 0.3 mm 3 mps 751 mmHg 92%
05:00 +20°C° 0.3 mm 3 mps 750 mmHg 92%
06:00 +20°C° 0.3 mm 4 mps 750 mmHg 92%
07:00 +21°C° 0.2 mm 4 mps 750 mmHg 87%
08:00 +22°C° 0.2 mm 4 mps 750 mmHg 82%
09:00 +23°C° 0.2 mm 4 mps 750 mmHg 77%
10:00 +23°C° 0 mm 5 mps 750 mmHg 73%
11:00 +25°C° 0 mm 5 mps 750 mmHg 69%
12:00 +26°C° 0 mm 5 mps 750 mmHg 65%
13:00 +26°C° 0 mm 6 mps 750 mmHg 67%
14:00 +26°C° 0 mm 6 mps 750 mmHg 69%
15:00 +26°C° 0 mm 6 mps 750 mmHg 71%
16:00 +24°C° 0.2 mm 6 mps 750 mmHg 74%
17:00 +23°C° 0.2 mm 5 mps 750 mmHg 77%
18:00 +21°C° 0.2 mm 5 mps 750 mmHg 81%
19:00 +20°C° 0 mm 5 mps 750 mmHg 80%
20:00 +19°C° 0 mm 5 mps 750 mmHg 79%
21:00 +17°C° 0 mm 5 mps 750 mmHg 77%
22:00 +16°C° 0 mm 5 mps 750 mmHg 78%
23:00 +16°C° 0 mm 5 mps 750 mmHg 78%

Tomorrow, 8 August, Saturday

Time Temperature Precipitation Wind Pressure Humidity
00:00 +15°C° 0 mm 5 mps 750 mmHg 78%
01:00 +14°C° 0 mm 5 mps 750 mmHg 79%
02:00 +14°C° 0 mm 5 mps 750 mmHg 80%
03:00 +13°C° 0 mm 5 mps 750 mmHg 81%
04:00 +13°C° 0 mm 5 mps 750 mmHg 81%
05:00 +14°C° 0 mm 5 mps 750 mmHg 81%
06:00 +14°C° 0 mm 6 mps 750 mmHg 81%
07:00 +15°C° 0 mm 6 mps 750 mmHg 77%
08:00 +17°C° 0 mm 6 mps 750 mmHg 74%
09:00 +19°C° 0 mm 6 mps 750 mmHg 70%
10:00 +20°C° 0 mm 6 mps 749 mmHg 66%
11:00 +21°C° 0 mm 6 mps 749 mmHg 63%
12:00 +22°C° 0 mm 6 mps 749 mmHg 59%
13:00 +22°C° 0 mm 6 mps 748 mmHg 61%
14:00 +21°C° 0 mm 6 mps 748 mmHg 63%
15:00 +21°C° 0 mm 6 mps 748 mmHg 64%
16:00 +21°C° 0 mm 6 mps 747 mmHg 69%
17:00 +20°C° 0 mm 5 mps 747 mmHg 73%
18:00 +19°C° 0 mm 4 mps 747 mmHg 77%
19:00 +18°C° 0 mm 4 mps 747 mmHg 79%
20:00 +17°C° 0 mm 4 mps 747 mmHg 81%
21:00 +15°C° 0 mm 4 mps 746 mmHg 83%
22:00 +15°C° 0 mm 4 mps 746 mmHg 85%
23:00 +14°C° 0 mm 4 mps 746 mmHg 86%

Day after tomorrow, 9 August, Sunday

Time Temperature Precipitation Wind Pressure Humidity
00:00 +14°C° 0 mm 5 mps 745 mmHg 87%
01:00 +14°C° 0 mm 5 mps 745 mmHg 89%
02:00 +13°C° 0 mm 5 mps 745 mmHg 90%
03:00 +13°C° 0 mm 5 mps 745 mmHg 91%
04:00 +13°C° 0 mm 5 mps 745 mmHg 89%
05:00 +13°C° 0 mm 6 mps 745 mmHg 87%
06:00 +14°C° 0 mm 6 mps 744 mmHg 85%
07:00 +15°C° 0 mm 7 mps 744 mmHg 79%
08:00 +16°C° 0 mm 7 mps 744 mmHg 73%
09:00 +18°C° 0 mm 8 mps 744 mmHg 68%
10:00 +18°C° 0 mm 8 mps 744 mmHg 66%
11:00 +20°C° 0 mm 7 mps 744 mmHg 63%
12:00 +21°C° 0 mm 7 mps 744 mmHg 61%
13:00 +21°C° 0 mm 7 mps 744 mmHg 61%
14:00 +21°C° 0 mm 7 mps 744 mmHg 62%
15:00 +21°C° 0 mm 7 mps 744 mmHg 62%
16:00 +20°C° 0 mm 7 mps 744 mmHg 67%
17:00 +19°C° 0 mm 6 mps 744 mmHg 72%
18:00 +19°C° 0 mm 6 mps 744 mmHg 77%
19:00 +16°C° 0 mm 6 mps 744 mmHg 79%
20:00 +15°C° 0 mm 6 mps 745 mmHg 82%
21:00 +14°C° 0 mm 6 mps 745 mmHg 85%
22:00 +13°C° 0 mm 6 mps 745 mmHg 85%
23:00 +11°C° 0 mm 6 mps 745 mmHg 86%

10 August, Monday

Time Temperature Precipitation Wind Pressure Humidity
00:00 +10°C° 0 mm 5 mps 745 mmHg 87%
01:00 +10°C° 0 mm 5 mps 745 mmHg 88%
02:00 +9°C° 0 mm 5 mps 745 mmHg 89%
03:00 +9°C° 0 mm 5 mps 745 mmHg 89%
04:00 +9°C° 0 mm 5 mps 745 mmHg 88%
05:00 +9°C° 0 mm 6 mps 745 mmHg 87%
06:00 +9°C° 0 mm 6 mps 745 mmHg 86%
07:00 +11°C° 0 mm 6 mps 745 mmHg 83%
08:00 +13°C° 0 mm 6 mps 745 mmHg 80%
09:00 +14°C° 0 mm 6 mps 745 mmHg 77%
10:00 +15°C° 0 mm 6 mps 745 mmHg 74%
11:00 +16°C° 0 mm 6 mps 745 mmHg 71%
12:00 +17°C° 0 mm 6 mps 745 mmHg 68%
13:00 +19°C° 0 mm 6 mps 745 mmHg 67%
14:00 +19°C° 0 mm 6 mps 745 mmHg 65%
15:00 +19°C° 0 mm 6 mps 745 mmHg 64%
16:00 +17°C° 0 mm 5 mps 745 mmHg 68%
17:00 +17°C° 0 mm 5 mps 745 mmHg 71%
18:00 +17°C° 0 mm 4 mps 745 mmHg 75%
19:00 +15°C° 0 mm 4 mps 745 mmHg 79%
20:00 +13°C° 0 mm 4 mps 745 mmHg 82%
21:00 +12°C° 0 mm 4 mps 745 mmHg 86%
22:00 +11°C° 0 mm 4 mps 745 mmHg 86%
23:00 +11°C° 0 mm 4 mps 746 mmHg 87%

11 August, Tuesday

Time Temperature Precipitation Wind Pressure Humidity
00:00 +10°C° 0 mm 4 mps 746 mmHg 87%
01:00 +10°C° 0 mm 4 mps 746 mmHg 88%
02:00 +8°C° 0 mm 4 mps 746 mmHg 89%
03:00 +8°C° 0 mm 4 mps 746 mmHg 90%
04:00 +10°C° 0 mm 4 mps 746 mmHg 89%
05:00 +10°C° 0 mm 4 mps 746 mmHg 87%
06:00 +11°C° 0 mm 4 mps 746 mmHg 85%
07:00 +12°C° 0 mm 4 mps 746 mmHg 80%
08:00 +14°C° 0 mm 4 mps 746 mmHg 75%
09:00 +17°C° 0 mm 4 mps 746 mmHg 70%
10:00 +18°C° 0 mm 4 mps 746 mmHg 67%
11:00 +19°C° 0 mm 4 mps 746 mmHg 64%
12:00 +20°C° 0 mm 5 mps 746 mmHg 60%
13:00 +20°C° 0 mm 4 mps 746 mmHg 60%
14:00 +21°C° 0 mm 4 mps 746 mmHg 60%
15:00 +21°C° 0 mm 4 mps 746 mmHg 60%
16:00 +20°C° 0 mm 4 mps 746 mmHg 65%
17:00 +19°C° 0 mm 3 mps 746 mmHg 70%
18:00 +19°C° 0 mm 3 mps 746 mmHg 75%
19:00 +17°C° 0 mm 3 mps 746 mmHg 78%
20:00 +16°C° 0 mm 3 mps 746 mmHg 82%
21:00 +14°C° 0 mm 2 mps 746 mmHg 86%
22:00 +14°C° 0 mm 2 mps 746 mmHg 87%
23:00 +13°C° 0 mm 2 mps 746 mmHg 88%

12 August, Wednesday

Time Temperature Precipitation Wind Pressure Humidity
00:00 +12°C° 0 mm 2 mps 746 mmHg 90%
01:00 +12°C° 0 mm 2 mps 746 mmHg 90%
02:00 +12°C° 0 mm 2 mps 746 mmHg 90%
03:00 +10°C° 0 mm 2 mps 746 mmHg 91%
04:00 +12°C° 0 mm 2 mps 746 mmHg 89%
05:00 +12°C° 0 mm 2 mps 746 mmHg 87%
06:00 +13°C° 0 mm 1 mps 746 mmHg 85%
07:00 +15°C° 0 mm 2 mps 746 mmHg 78%
08:00 +16°C° 0 mm 2 mps 746 mmHg 71%
09:00 +18°C° 0 mm 2 mps 746 mmHg 65%
10:00 +18°C° 0 mm 2 mps 746 mmHg 62%
11:00 +19°C° 0 mm 2 mps 746 mmHg 59%
12:00 +20°C° 0 mm 2 mps 746 mmHg 56%
13:00 +20°C° 0.1 mm 3 mps 746 mmHg 58%
14:00 +19°C° 0.1 mm 3 mps 746 mmHg 60%
15:00 +19°C° 0.1 mm 3 mps 746 mmHg 63%
16:00 +19°C° 0 mm 2 mps 746 mmHg 66%
17:00 +18°C° 0 mm 2 mps 746 mmHg 69%
18:00 +17°C° 0 mm 2 mps 746 mmHg 72%
19:00 +16°C° 0 mm 2 mps 747 mmHg 76%
20:00 +13°C° 0 mm 3 mps 747 mmHg 79%
21:00 +11°C° 0 mm 3 mps 747 mmHg 83%
22:00 +10°C° 0 mm 3 mps 747 mmHg 83%
23:00 +10°C° 0 mm 3 mps 747 mmHg 84%
Show more